Terug naar catalogus

CZ-3B R/B

ActiefHEO
NORAD 55687·ROCKET BODY·🇨🇳 China

Gelanceerd Feb 23, 2023 vanaf Xichang Satellite Launch Center

Loading…

Volgende Passages (komende 24 uur)

TLE

VersSource: Space-Track

Epoch: Sep 14, 2026, 20:46 UTC

1 55687U 23023B   26257.86586849  .00080081  72240-6  17610-2 0  9992
2 55687  27.5812  38.8276 6425373 167.5413 222.8662  3.49445820 37365

Volg CZ-3B R/B in realtime met AllMySat

Download on the App Store